Regional Weather Roundup
Issued by NWS

Home | Current Version | Previous Version | Text Only | Print | Product List | Glossary Off
Versions: 1 2 3 4 5 6 7 8 9 10 11 12 13 14 15 16 17 18 19 20 21 22 23 24 25 26 27 28 29 30 31 32 33 34 35 36 37 38 39 40 41 42 43 44 45 46 47 48 49 50

000
ASUS44 KMEG 270300
RWRTN
TENNESSEE HOURLY STATE WEATHER ROUNDUP
NATIONAL WEATHER SERVICE MEMPHIS TN
900 PM CST MON JAN 26 2015

TNZ002-004-019-021-049-052-054-088>092-270400-
WEST TENNESSEE

CITY           SKY/WX    TMP DP  RH WIND       PRES   REMARKS
MEMPHIS INTL   CLEAR     40  32  73 S6        29.96F
NWS MEMPHIS      N/A     39 N/A N/A MISG        N/A
JACKSON        CLEAR     29  26  89 SE3       29.96F
DYERSBURG      CLEAR     36  19  51 SE3       29.96F
UNION CITY     CLEAR     28  28 100 SE5       29.92F WCI  23
PARIS          CLOUDY    36  28  75 S3        29.94F
LEXINGTON      CLEAR     36  28  75 CALM      29.96F
SAVANNAH       CLEAR     30  28  93 CALM      29.99F
$$

TNZ008-025-027-028-033-062-065-066-270400-
NORTH MIDDLE TENNESSEE

CITY           SKY/WX    TMP DP  RH WIND       PRES   REMARKS
NASHVILLE      CLOUDY    34  31  88 E3        29.98S
CLARKSVILLE    CLOUDY    35  31  85 CALM      29.96F
SMYRNA         CLOUDY    34  32  93 CALM      29.99S
COOKEVILLE     MOCLDY    30  30 100 CALM      29.95S
CROSSVILLE     CLOUDY    29  26  89 W6        29.91F FOG     WCI  23
$$

TNZ061-075-076-078-094-096-097-270400-
SOUTH MIDDLE TENNESSEE

CITY           SKY/WX    TMP DP  RH WIND       PRES   REMARKS
FAYETTEVILLE   CLOUDY    34  28  80 MISG      29.95S
TULLAHOMA      CLOUDY    32  28  86 CALM      29.95S
WINCHESTER     CLOUDY    32  30  93 CALM      29.96S
MCMINNVILLE    CLOUDY    30  30 100 CALM      29.96R
SHELBYVILLE    CLOUDY    34  30  86 CALM      29.97S
$$

TNZ017-018-042-046-047-270400-
NORTHEAST TENNESSEE

CITY           SKY/WX    TMP DP  RH WIND       PRES   REMARKS
TRI CITIES     CLOUDY    30  25  81 W13       29.89S WCI  20
ELIZABETHTON   CLOUDY    27  23  86 W7        29.87S WCI  19
$$

TNZ012-013-036-069-073-074-270400-
CENTRAL EAST TENNESSEE

CITY           SKY/WX    TMP DP  RH WIND       PRES   REMARKS
KNOXVILLE      LGT SNOW  30  28  92 S5        29.95F FOG     WCI  25
OAK RIDGE      FLURRIES  31  28  89 SW3       29.96F
GATLINBURG     CLOUDY    30  25  80 SW5       29.93F WCI  25
$$

TNZ083-085-099-270400-
SOUTHEAST TENNESSEE

CITY           SKY/WX    TMP DP  RH WIND       PRES   REMARKS
CHATTANOOGA    FLURRIES  35  30  82 CALM      29.98R
$$

SKY/WX REPORTED AS FAIR MEANS FEW OR NO CLOUDS BELOW
12 THOUSAND FEET.



USA.gov is the U.S. government's official web portal to all federal, state and local government web resources and services.